Radiation Dose at Monitoring Post of Fukushima Daini Nuclear Power Station
Date,Time,MP-1(microSv/h),MP-2(microSv/h),MP-3(microSv/h),MP-4(microSv/h),MP-5(microSv/h),MP-6(microSv/h),MP-7(microSv/h),Wind Direction,Wind Velocity(m/s),Rain
2016/01/28,00:00,0.455,0.265,0.476,0.432,0.413,0.218,0.190,west-northwest,1.9,No
2016/01/28,00:10,0.454,0.265,0.475,0.436,0.415,0.218,0.190,southwest,0.9,No
2016/01/28,00:20,0.454,0.265,0.475,0.434,0.416,0.218,0.190,north-northwest,1.6,No
2016/01/28,00:30,0.456,0.265,0.477,0.432,0.414,0.218,0.190,southwest,2.6,No
2016/01/28,00:40,0.453,0.266,0.476,0.433,0.413,0.219,0.190,southwest,2.8,No
2016/01/28,00:50,0.454,0.265,0.475,0.434,0.415,0.219,0.191,south-southwest,4.6,No
2016/01/28,01:00,0.453,0.265,0.476,0.434,0.415,0.219,0.190,southwest,5.1,No
2016/01/28,01:10,0.454,0.265,0.475,0.434,0.413,0.220,0.190,southwest,5.1,No
2016/01/28,01:20,0.454,0.265,0.474,0.434,0.413,0.218,0.191,southwest,5.6,No
2016/01/28,01:30,0.454,0.265,0.477,0.433,0.416,0.219,0.190,south-southwest,5.7,No
2016/01/28,01:40,0.453,0.265,0.474,0.434,0.415,0.218,0.190,southwest,4.0,No
2016/01/28,01:50,0.454,0.264,0.474,0.433,0.414,0.220,0.190,south-southwest,4.1,No
2016/01/28,02:00,0.453,0.264,0.475,0.435,0.415,0.219,0.190,south-southwest,4.2,No
2016/01/28,02:10,0.453,0.265,0.477,0.433,0.415,0.219,0.190,south-southwest,4.6,No
2016/01/28,02:20,0.454,0.265,0.475,0.434,0.413,0.219,0.191,south-southwest,4.0,No
2016/01/28,02:30,0.452,0.265,0.473,0.435,0.414,0.219,0.190,south-southwest,3.3,No
2016/01/28,02:40,0.453,0.265,0.477,0.433,0.415,0.218,0.191,south-southwest,3.3,No
2016/01/28,02:50,0.454,0.264,0.475,0.434,0.415,0.219,0.190,south,3.2,No
2016/01/28,03:00,0.455,0.264,0.476,0.433,0.415,0.218,0.190,south,3.2,No
2016/01/28,03:10,0.453,0.264,0.476,0.435,0.416,0.220,0.190,south,3.2,No
2016/01/28,03:20,0.455,0.266,0.475,0.433,0.414,0.219,0.190,south,3.9,No
2016/01/28,03:30,0.455,0.264,0.475,0.433,0.413,0.219,0.191,south,4.2,No
2016/01/28,03:40,0.452,0.265,0.478,0.434,0.415,0.218,0.191,south,3.4,No
2016/01/28,03:50,0.455,0.265,0.475,0.433,0.416,0.219,0.191,south,2.4,No
2016/01/28,04:00,0.455,0.266,0.473,0.435,0.413,0.219,0.190,south,2.2,No
2016/01/28,04:10,0.454,0.266,0.477,0.434,0.416,0.218,0.191,south-southeast,3.5,No
2016/01/28,04:20,0.455,0.264,0.474,0.432,0.416,0.219,0.190,south,4.3,No
2016/01/28,04:30,0.455,0.266,0.475,0.434,0.416,0.219,0.190,south,4.6,No
2016/01/28,04:40,0.455,0.266,0.475,0.436,0.416,0.219,0.190,south-southeast,4.9,No
2016/01/28,04:50,0.456,0.265,0.473,0.432,0.416,0.218,0.191,south-southeast,3.3,No
2016/01/28,05:00,0.456,0.264,0.475,0.433,0.414,0.218,0.190,south,4.5,No
2016/01/28,05:10,0.455,0.266,0.476,0.434,0.415,0.219,0.190,south,3.7,No
2016/01/28,05:20,0.456,0.265,0.474,0.433,0.414,0.219,0.190,south,4.2,No
2016/01/28,05:30,0.455,0.265,0.477,0.433,0.414,0.219,0.191,south,2.9,No
2016/01/28,05:40,0.453,0.265,0.476,0.436,0.416,0.219,0.190,south,1.3,No
2016/01/28,05:50,0.456,0.266,0.475,0.434,0.415,0.219,0.189,south,2.7,No
2016/01/28,06:00,0.455,0.265,0.476,0.434,0.415,0.218,0.190,south,3.1,No
2016/01/28,06:10,0.454,0.265,0.478,0.434,0.415,0.219,0.190,south-southeast,2.8,No
2016/01/28,06:20,0.455,0.264,0.475,0.435,0.414,0.219,0.191,south-southeast,3.7,No
2016/01/28,06:30,0.456,0.265,0.474,0.433,0.417,0.219,0.190,south,4.0,No
2016/01/28,06:40,0.456,0.265,0.477,0.433,0.415,0.219,0.191,south,4.1,No
2016/01/28,06:50,0.455,0.265,0.476,0.436,0.415,0.219,0.191,south,2.9,No
2016/01/28,07:00,0.455,0.266,0.474,0.436,0.414,0.218,0.191,south,2.3,No
2016/01/28,07:10,0.455,0.264,0.477,0.434,0.416,0.218,0.190,south,1.4,No
2016/01/28,07:20,0.454,0.266,0.475,0.436,0.414,0.220,0.192,south-southeast,3.3,No
2016/01/28,07:30,0.453,0.266,0.475,0.436,0.415,0.219,0.191,south,3.1,No
2016/01/28,07:40,0.454,0.265,0.476,0.433,0.416,0.219,0.190,south,2.1,No
2016/01/28,07:50,0.455,0.267,0.477,0.434,0.416,0.219,0.191,south-southwest,2.9,No
2016/01/28,08:00,0.454,0.266,0.475,0.435,0.414,0.220,0.190,south-southwest,4.5,No
2016/01/28,08:10,0.456,0.265,0.476,0.433,0.414,0.220,0.191,south,4.5,No
2016/01/28,08:20,0.453,0.265,0.477,0.433,0.417,0.219,0.190,south,4.8,No
2016/01/28,08:30,0.455,0.265,0.476,0.434,0.417,0.219,0.189,south,3.3,No
2016/01/28,08:40,0.454,0.264,0.474,0.432,0.414,0.219,0.190,south,3.3,No
2016/01/28,08:50,0.456,0.264,0.477,0.433,0.414,0.219,0.189,south,5.1,No
2016/01/28,09:00,0.453,0.264,0.477,0.435,0.416,0.218,0.189,south,4.0,No
2016/01/28,09:10,0.455,0.266,0.475,0.431,0.414,0.218,0.191,south-southeast,3.9,No
2016/01/28,09:20,0.456,0.264,0.479,0.436,0.416,0.218,0.190,south-southeast,4.5,No
2016/01/28,09:30,0.453,0.264,0.476,0.430,0.415,0.218,0.191,south-southeast,4.4,No
2016/01/28,09:40,0.455,0.265,0.477,0.434,0.413,0.219,0.190,south,4.4,No
2016/01/28,09:50,0.454,0.263,0.476,0.432,0.418,0.219,0.190,south-southeast,3.3,No
2016/01/28,10:00,0.453,0.265,0.474,0.435,0.413,0.219,0.190,south-southeast,3.9,No
2016/01/28,10:10,0.453,0.262,0.478,0.431,0.416,0.219,0.190,south,4.1,No
2016/01/28,10:20,0.451,0.265,0.475,0.437,0.414,0.220,0.189,south-southwest,2.6,No
2016/01/28,10:30,0.452,0.263,0.475,0.430,0.415,0.219,0.191,southwest,3.1,No
2016/01/28,10:40,0.450,0.264,0.477,0.435,0.413,0.219,0.190,west-northwest,1.8,No
2016/01/28,10:50,0.451,0.264,0.474,0.432,0.415,0.220,0.191,west-southwest,6.1,No
2016/01/28,11:00,0.455,0.265,0.477,0.436,0.413,0.218,0.190,west-southwest,11.1,No
2016/01/28,11:10,0.449,0.263,0.474,0.432,0.417,0.220,0.190,west-southwest,8.4,No
2016/01/28,11:20,0.453,0.265,0.476,0.435,0.413,0.218,0.190,west-southwest,9.2,No
2016/01/28,11:30,0.451,0.264,0.474,0.434,0.418,0.218,0.192,west-southwest,8.1,No
2016/01/28,11:40,0.455,0.264,0.475,0.432,0.413,0.218,0.190,west,9.5,No
2016/01/28,11:50,0.454,0.265,0.473,0.435,0.418,0.220,0.192,northwest,9.0,No
2016/01/28,12:00,0.455,0.263,0.475,0.430,0.412,0.219,0.191,west-northwest,9.0,No
2016/01/28,12:10,0.455,0.265,0.471,0.436,0.420,0.219,0.191,west-northwest,6.6,No
2016/01/28,12:20,0.454,0.265,0.476,0.432,0.415,0.219,0.189,west-northwest,7.6,No
2016/01/28,12:30,0.456,0.267,0.471,0.434,0.416,0.218,0.191,west-northwest,6.0,No
2016/01/28,12:40,0.453,0.265,0.477,0.434,0.418,0.219,0.191,west-northwest,3.3,No
2016/01/28,12:50,0.455,0.265,0.473,0.434,0.416,0.218,0.192,northwest,5.8,No
2016/01/28,13:00,0.455,0.265,0.477,0.435,0.418,0.220,0.192,northwest,5.9,No
2016/01/28,13:10,0.456,0.266,0.477,0.432,0.415,0.219,0.191,west-northwest,6.7,No
2016/01/28,13:20,0.454,0.266,0.477,0.437,0.419,0.220,0.191,west-northwest,5.8,No
2016/01/28,13:30,0.454,0.264,0.477,0.432,0.414,0.219,0.190,west,5.1,No
2016/01/28,13:40,0.455,0.265,0.472,0.435,0.418,0.218,0.192,west-northwest,6.2,No
2016/01/28,13:50,0.454,0.266,0.477,0.436,0.415,0.218,0.191,northwest,6.0,No
2016/01/28,14:00,0.455,0.265,0.474,0.433,0.418,0.219,0.192,west,6.7,No
2016/01/28,14:10,0.454,0.266,0.480,0.436,0.413,0.218,0.191,west-northwest,6.1,No
2016/01/28,14:20,0.456,0.265,0.475,0.433,0.420,0.220,0.192,west-northwest,4.1,No
2016/01/28,14:30,0.453,0.266,0.479,0.438,0.418,0.218,0.191,west-northwest,6.0,No
2016/01/28,14:40,0.457,0.264,0.477,0.432,0.419,0.218,0.192,west-southwest,3.2,No
2016/01/28,14:50,0.454,0.266,0.479,0.438,0.418,0.217,0.190,west,4.0,No
2016/01/28,15:00,0.459,0.265,0.477,0.433,0.418,0.218,0.191,west,3.9,No
2016/01/28,15:10,0.456,0.266,0.477,0.438,0.419,0.217,0.191,west,3.0,No
2016/01/28,15:20,0.457,0.265,0.477,0.435,0.416,0.219,0.191,northwest,2.6,No
2016/01/28,15:30,0.455,0.266,0.475,0.439,0.419,0.218,0.191,northwest,1.6,No
2016/01/28,15:40,0.457,0.266,0.477,0.437,0.415,0.219,0.191,northwest,3.5,No
2016/01/28,15:50,0.457,0.266,0.475,0.435,0.420,0.218,0.192,west,4.7,No
2016/01/28,16:00,0.456,0.268,0.479,0.437,0.417,0.218,0.191,west-northwest,3.6,No
2016/01/28,16:10,0.458,0.266,0.476,0.435,0.417,0.219,0.191,northwest,1.4,No
2016/01/28,16:20,0.455,0.266,0.479,0.438,0.417,0.219,0.191,west-northwest,2.8,No
2016/01/28,16:30,0.457,0.266,0.477,0.436,0.417,0.218,0.190,west-southwest,2.0,No
2016/01/28,16:40,0.457,0.266,0.477,0.435,0.418,0.218,0.191,northwest,1.5,No
2016/01/28,16:50,0.456,0.265,0.479,0.437,0.415,0.219,0.191,west,2.2,No
2016/01/28,17:00,0.458,0.266,0.475,0.433,0.417,0.219,0.191,west-northwest,2.1,No
2016/01/28,17:10,0.457,0.266,0.478,0.437,0.418,0.219,0.191,west-northwest,0.9,No
2016/01/28,17:20,0.456,0.266,0.477,0.436,0.416,0.219,0.191,northwest,4.6,No
2016/01/28,17:30,0.458,0.264,0.477,0.435,0.416,0.220,0.192,northwest,6.1,No
2016/01/28,17:40,0.457,0.266,0.480,0.438,0.417,0.218,0.192,northwest,4.0,No
2016/01/28,17:50,0.455,0.267,0.476,0.435,0.416,0.219,0.192,northwest,3.4,No
2016/01/28,18:00,0.457,0.266,0.476,0.436,0.416,0.219,0.191,north-northwest,3.4,No
2016/01/28,18:10,0.454,0.265,0.479,0.436,0.416,0.220,0.192,northwest,3.7,No
2016/01/28,18:20,0.457,0.267,0.477,0.432,0.417,0.219,0.192,west-northwest,2.0,No
2016/01/28,18:30,0.458,0.266,0.477,0.436,0.415,0.220,0.192,southwest,2.9,No
2016/01/28,18:40,0.455,0.265,0.478,0.436,0.417,0.220,0.191,west-northwest,2.3,No
2016/01/28,18:50,0.458,0.266,0.477,0.435,0.419,0.219,0.191,west-northwest,1.6,No
2016/01/28,19:00,0.458,0.266,0.479,0.436,0.415,0.218,0.191,west-northwest,0.6,No
2016/01/28,19:10,0.456,0.265,0.479,0.437,0.416,0.219,0.192,-,CALM,No
2016/01/28,19:20,0.456,0.266,0.475,0.437,0.417,0.219,0.193,north-northeast,0.7,No
2016/01/28,19:30,0.457,0.265,0.479,0.437,0.413,0.219,0.190,north,2.4,No
2016/01/28,19:40,0.456,0.266,0.478,0.438,0.415,0.219,0.192,north-northeast,3.0,No
2016/01/28,19:50,0.457,0.266,0.478,0.437,0.416,0.219,0.191,north,3.6,No
2016/01/28,20:00,0.458,0.266,0.477,0.434,0.415,0.219,0.191,north-northwest,1.8,No
2016/01/28,20:10,0.456,0.266,0.478,0.436,0.414,0.220,0.192,west-northwest,3.5,No
2016/01/28,20:20,0.456,0.265,0.477,0.436,0.416,0.218,0.191,north,3.7,No
2016/01/28,20:30,0.458,0.266,0.479,0.436,0.416,0.220,0.191,north,3.5,No
2016/01/28,20:40,0.456,0.265,0.478,0.435,0.415,0.219,0.192,north-northeast,2.6,No
2016/01/28,20:50,0.456,0.266,0.477,0.437,0.416,0.219,0.192,north-northeast,3.5,No
2016/01/28,21:00,0.455,0.266,0.477,0.434,0.416,0.219,0.192,north-northeast,3.7,No
2016/01/28,21:10,0.457,0.265,0.480,0.434,0.415,0.220,0.190,north,3.3,No
2016/01/28,21:20,0.456,0.266,0.478,0.437,0.415,0.219,0.191,north-northwest,1.7,No
2016/01/28,21:30,0.456,0.266,0.478,0.435,0.416,0.219,0.192,northwest,0.7,No
2016/01/28,21:40,0.457,0.266,0.479,0.436,0.415,0.219,0.191,northwest,0.6,No
2016/01/28,21:50,0.455,0.266,0.478,0.436,0.415,0.219,0.191,-,CALM,No
2016/01/28,22:00,0.455,0.265,0.476,0.436,0.415,0.218,0.192,west-northwest,1.5,No
2016/01/28,22:10,0.458,0.268,0.480,0.434,0.416,0.219,0.190,west,3.8,No
2016/01/28,22:20,0.455,0.266,0.480,0.437,0.415,0.219,0.191,west-northwest,4.6,No
2016/01/28,22:30,0.456,0.265,0.477,0.437,0.416,0.219,0.191,north-northwest,3.6,No
2016/01/28,22:40,0.457,0.267,0.480,0.435,0.417,0.219,0.190,north-northwest,2.8,No
2016/01/28,22:50,0.456,0.266,0.478,0.437,0.414,0.219,0.192,north,3.5,No
2016/01/28,23:00,0.457,0.265,0.477,0.436,0.416,0.219,0.192,north,3.2,No
2016/01/28,23:10,0.458,0.265,0.479,0.433,0.418,0.219,0.192,north,5.7,No
2016/01/28,23:20,0.456,0.265,0.478,0.435,0.416,0.218,0.192,north,7.0,No
2016/01/28,23:30,0.457,0.267,0.477,0.436,0.415,0.220,0.191,north,8.2,No
2016/01/28,23:40,0.458,0.267,0.478,0.434,0.417,0.219,0.192,north,11.2,No
2016/01/28,23:50,0.457,0.268,0.480,0.436,0.416,0.219,0.191,north,9.5,No
